Location: ?????
(55.8833°N, 37.6500°E)
Time: 15:28:29
(UTC+00:00)

STARLINK-1055 - Pass Details

Date: 27 February 2020
Orbit: 549 x 550 km, 53.0° (Epoch: 08 April)

Event Time Altitude Azimuth Distance (km) Brightness Sun altitude
Rises 17:12:58 0° 233° (SW) 2,712 7.7 -19.5°
Reaches altitude 10° 17:15:18 10° 226° (SW) 1,821 6.6 -19.9°
Enters shadow 17:18:50 37° 169° (S) 857 4.3 -20.3°
